Location: Maiden
(35.5760°N, 81.2120°W)
Time: 02:30:25
(UTC-05:00)

Hubble Space Telescope - Visible Passes

Search period start: 21 February 2018 00:00
Search period end: 03 March 2018 00:00
Orbit: 537 x 541 km, 28.5° (Epoch: 20 February)

Date Brightness Start Highest point End Pass type
(mag) Time Alt. Az. Time Alt. Az. Time Alt. Az.
21 Feb 2.4 05:32:15 20° SSW 05:33:40 24° S 05:37:02 10° ESE visible
22 Feb 2.2 05:22:37 25° S 05:23:19 26° S 05:26:48 10° ESE visible
23 Feb 2.1 05:12:56 28° S 05:12:59 28° S 05:16:32 10° ESE visible
24 Feb 2.2 05:03:15 28° SSE 05:03:15 28° SSE 05:06:16 10° ESE visible
25 Feb 2.5 04:53:33 25° SSE 04:53:33 25° SSE 04:55:57 10° ESE visible
25 Feb 2.4 06:29:46 10° WSW 06:33:04 23° SSW 06:36:22 10° SE visible
26 Feb 2.9 04:43:51 21° SE 04:43:51 21° SE 04:45:37 10° ESE visible
26 Feb 2.5 06:19:36 10° WSW 06:22:43 21° SSW 06:25:49 10° SE visible
27 Feb 3.3 04:34:10 16° SE 04:34:10 16° SE 04:35:14 10° ESE visible
27 Feb 2.7 06:09:32 10° WSW 06:12:20 18° SSW 06:15:10 10° SSE visible
28 Feb 3.7 04:24:32 12° SE 04:24:32 12° SE 04:24:51 10° SE visible
28 Feb 2.8 05:59:54 11° SW 06:01:58 15° SSW 06:04:24 10° SSE visible
01 Mar 2.9 05:50:18 11° SW 05:51:35 13° SSW 05:53:24 10° S visible
02 Mar 3.1 05:40:46 10° SSW 05:41:11 10° SSW 05:41:38 10° SSW visible
